Hourly Data Report for October 12, 2013

All times are specified in Local Standard Time (LST). Add 1 hour to adjust for Daylight Saving Time where and when it is observed.

GRISE FIORD CLIMATE
NUNAVUT

76°25'22.040" N
82°54'08.020" W
44.50 m
2402351
71971
NGC

Download Data

Hourly Data (October 2013)
Hourly Data Report for October 12, 2013
Temp Definition
°C
Dew Point Temp Definition
°C
Rel Hum Definition
%
Wind Dir Definition
10's deg

Wind Spd Definition
km/h
Visibility Definition
km
Stn Press Definition
kPa
Hmdx Definition


Wind Chill Definition


Weather Definition


TIME
00:00 -9.1 -17.0 53 12 9   101.42   -14 LegendNANA
01:00 -8.3 -15.1 58 29 9   101.40   -13 LegendNANA
02:00 -8.0 -16.3 51 28 7   101.38   -12 LegendNANA
03:00 -9.2 -16.9 54 12 6   101.35   -13 LegendNANA
04:00 -8.4 -17.8 47 13 4   101.34   -11 LegendNANA
05:00 -9.3 -17.5 51 12 6   101.30   -13 LegendNANA
06:00 -9.0 -18.3 47 26 7   101.28   -13 LegendNANA
07:00 -5.1 -21.7 26 8 15   101.25   -11 LegendNANA
08:00 -5.1 -21.3 27 6 15   101.22   -11 LegendNANA
09:00 -4.8 -20.4 28 8 19   101.20   -11 LegendNANA
10:00 -5.1 -20.6 28 9 17   101.17   -11 LegendNANA
11:00 -5.2 -20.9 28 12 17   101.13   -11 LegendNANA
12:00 -5.7 -20.8 29 8 17   101.12   -12 LegendNANA
13:00 -5.8 -20.8 30 9 24   101.08   -13 LegendNANA
14:00 -5.2 -21.0 28 10 19   101.07   -12 LegendNANA
15:00 -5.7 -21.4 28 7 28   101.04   -14 LegendNANA
16:00 -5.7 -21.9 27 9 26   101.05   -13 LegendNANA
17:00 -5.4 -22.1 26 8 28   101.03   -13 LegendNANA
18:00 -5.6 -22.0 26 7 28   101.04   -14 LegendNANA
19:00 -5.4 -21.9 26 7 28   101.04   -13 LegendNANA
20:00 -5.2 -21.6 26 8 24   101.03   -12 LegendNANA
21:00 -5.0 -22.9 23 9 28   101.01   -13 LegendNANA
22:00 -7.0 -19.2 37 10 6   101.05   -10 LegendNANA
23:00 -8.2 -18.9 42 13 11   101.09   -13 LegendNANA

Notes on Data Quality.

Legend

  • E = Estimated
  • M = Missing
  • NA = Not Available
  • ‡ = Partner data that is not subject to review by the National Climate Archives
Date modified: